CZ-6A R/B, 62237

Orbit data source: Space-Track

CZ-6A R/B, 62237 is space debris in LEO originally from a launch on Thu, 05 Dec 2024 UTC via a CHANG ZHENG 6A launch vehicle from the Taiyaun Space Center, China (TSC). Debris objects in space refer to the collection of defunct objects orbiting the Earth. Examples of debris include non-operational satellites, rocket bodies, and fragments generated from explosions, collisions, or faulty payload assembly.

Loading next visibility...
Identifier
62237, 2024-232A
Orbit
LEO
Last TLE update
14 hours ago
Origin
Manufacturer
SAST
Mission
Spacecraft
Bus & Motor
CZ-6A STAGE 2, YF-115
Mass
~6,000 kg wet, ~6,000 kg dry
Launch date (UTC)
2024-12-05 (5 months ago)
Launch vehicle
CHANG ZHENG 6A
Launch site
Taiyaun Space Center, China (TSC)
Object type
Payload
Rocket body
Debris
Shape & HBR
Unknown shape, 11 m
Radar Cross Section
Large (>1 m²)

Expand to show TLE details & history

TLE from 14 hours ago
0 CZ-6A R/B
1 62237U 24232A   25132.87599076  .00000307  00000-0  68376-4 0  9991
2 62237  89.0265  61.5685 0096260 292.1251  66.9760 14.51579324 71348
Epoch: 2025-05-12T21:01Z
Definitive object data (Epoch: 2025-05-12T21:01:25.601Z)
Latitude
-0°
Longitude
-124.67096°
Altitude
697.423 km
Speed
7.521 km/s
True Right ascension
04h 06m 16s
True Declination
0° 00' 00"
Sunlit
Object was in daylight at TLE epoch
Visualization TLE readout
Latitude
25.78015°
Longitude
54.79373°
Altitude
772.548 km
Speed
7.444 km/s
Apparent Right ascension
12h 49m 11s
Apparent Declination
-11° 05' 21"
Sunlit
Object is in full shadow
Visualization observer readout
Local Sidereal Time
19:23:54
Azimuth
266.901° W
Elevation
-13.708°
Doppler factor
1
Orbital elements
Apogee altitude
785.702 km
Perigee altitude
649.099 km
Semi-major axis
7,095.537 km
Eccentricity
0.009626
Inclination
89.0265°
RAAN
61.5685°
Arg. of periapsis
292.1251°
True anomaly
67.99594°
Mean anomaly
66.976°
Eccentric anomaly
67.48549°
Mean motion
3.63133 °/min
BSTAR
0.000068376
Orbital period
99.14 mins
Loading maneuver chart data...
Loading SW <> Apogee altitude chart data...
Loading historical data...
Loading historical data...
Loading historical data...
Loading historical data...
Loading historical data...
Loading historical data...
Loading historical data...

CZ-6A R/B Visibility forecast

Observer location: undefined°, undefined°

Span
Click to sort rows by Start time (UTC) header in descending order
Start Az.
Max El. time (UTC)
Max El. Az.
Max El.
End time (UTC)
End Az.
7 mins2025-05-13 18:39:33.450Z128.475° SE2025-05-13 18:43:33.450Z72.707° E21.6°2025-05-13 18:46:33.450Z31.823° NE
7 mins2025-05-13 20:19:33.450Z222.9° SW2025-05-13 20:22:33.450Z284.402° WNW30.026°2025-05-13 20:26:33.450Z339.897° N
7 mins2025-05-14 06:42:33.450Z32.438° NE2025-05-14 06:45:33.450Z80.522° E27.24°2025-05-14 06:49:33.450Z141.303° SSE
7 mins2025-05-14 08:21:33.450Z329.839° NNW2025-05-14 08:24:33.450Z284.981° WNW25.705°2025-05-14 08:28:33.450Z225.979° WSW
|